Location: Carthage
(33.8834°N, 106.6595°W)
Time: 03:38:08
(UTC+00:00)

Cosmos 2322 Rocket - Pass Details

Date: 25 May 2026
Orbit: 831 x 850 km, 71.0° (Epoch: 9 June)

Event Time Altitude Azimuth Distance (km) Brightness Sun altitude
Rises 04:33:36 0° 318° (NW) 3,410 6.8 -24.6°
Reaches altitude 10° 04:36:56 10° 298° (WNW) 2,473 5.5 -25.0°
Maximum altitude 04:40:21 17° 261° (W) 2,046 4.5 -25.4°
Drops below altitude 10° 04:43:46 10° 223° (SW) 2,467 4.5 -25.9°
Enters shadow 04:43:53 10° 223° (SW) 2,494 4.5 -25.9°
